VOI3931 MGGT-MMUN

Flight info

Callsign VOI3931
Flight time N/A
Altitude 35000
Route VILDA AUR DCT VILDA DCT JERON DCT AMINU DCT CTM UG765 PAULE PAULE2G
Aircraft A320/M-SDE3FGHIRWY/LB1

Departure

Time 2026-05-06 00:10
Airport La Aurora International Airport (MGGT)

Arrival

Time N/A
Airport Cancún International Airport (MMUN)
Time Latitude Longitude Altitude Speed Heading
2026-05-05 22:51 14.59046 -90.52834 4966 ft 0 kts 288°
2026-05-06 00:01 14.59043 -90.52827 4966 ft 2 kts 287°
2026-05-06 00:01 14.59037 -90.52807 4966 ft 3 kts 288°
2026-05-06 00:01 14.59031 -90.52787 4966 ft 3 kts 289°
2026-05-06 00:01 14.59024 -90.52768 4966 ft 3 kts 298°
2026-05-06 00:02 14.59013 -90.52752 4966 ft 3 kts 332°
2026-05-06 00:02 14.59005 -90.52749 4966 ft 2 kts 14°
2026-05-06 00:02 14.58984 -90.52755 4966 ft 3 kts 18°
2026-05-06 00:02 14.58971 -90.52759 4966 ft 3 kts 18°
2026-05-06 00:03 14.58946 -90.52767 4966 ft 3 kts 18°
2026-05-06 00:03 14.58926 -90.52774 4966 ft 3 kts 17°
2026-05-06 00:03 14.58907 -90.52780 4966 ft 3 kts 17°
2026-05-06 00:03 14.58894 -90.52784 4966 ft 3 kts 17°
2026-05-06 00:04 14.58874 -90.52790 4966 ft 3 kts 17°
2026-05-06 00:04 14.58855 -90.52796 4966 ft 3 kts 19°
2026-05-06 00:04 14.58836 -90.52803 4966 ft 3 kts 17°
2026-05-06 00:04 14.58816 -90.52809 4966 ft 3 kts 16°
2026-05-06 00:05 14.58807 -90.52812 4966 ft 0 kts 17°
2026-05-06 00:06 14.58810 -90.52810 4966 ft 2 kts 23°
2026-05-06 00:06 14.58806 -90.52756 4966 ft 15 kts 119°
2026-05-06 00:06 14.58782 -90.52676 4966 ft 7 kts 63°
2026-05-06 00:07 14.58837 -90.52653 4966 ft 10 kts 17°
2026-05-06 00:07 14.58912 -90.52631 4966 ft 13 kts 16°
2026-05-06 00:07 14.59005 -90.52602 4966 ft 15 kts 18°
2026-05-06 00:07 14.59113 -90.52565 4966 ft 18 kts 18°
2026-05-06 00:08 14.59238 -90.52524 4966 ft 20 kts 17°
2026-05-06 00:08 14.59370 -90.52483 4966 ft 18 kts 17°
2026-05-06 00:08 14.59476 -90.52448 4966 ft 14 kts 18°
2026-05-06 00:08 14.59577 -90.52415 4966 ft 11 kts 24°
2026-05-06 00:09 14.59576 -90.52354 4966 ft 9 kts 109°
2026-05-06 00:09 14.59556 -90.52353 4966 ft 0 kts 202°
2026-05-06 00:09 14.59551 -90.52355 4966 ft 0 kts 199°
2026-05-06 00:09 14.59521 -90.52365 4966 ft 15 kts 197°
2026-05-06 00:10 14.59216 -90.52460 4966 ft 84 kts 197°
2026-05-06 00:10 14.58435 -90.52714 4967 ft 149 kts 197°
2026-05-06 00:10 14.57346 -90.53067 5288 ft 169 kts 198°
2026-05-06 00:10 14.56174 -90.53348 5863 ft 177 kts 179°
2026-05-06 00:11 14.55006 -90.53014 6582 ft 176 kts 147°
2026-05-06 00:11 14.54220 -90.52108 7134 ft 172 kts 112°
2026-05-06 00:11 14.54109 -90.50888 7481 ft 174 kts 73°
2026-05-06 00:11 14.54703 -90.49821 7841 ft 175 kts 43°
2026-05-06 00:12 14.55691 -90.49010 8083 ft 190 kts 30°
2026-05-06 00:12 14.56888 -90.48272 8415 ft 211 kts 27°
2026-05-06 00:12 14.58223 -90.47471 8723 ft 233 kts 27°
2026-05-06 00:12 14.59665 -90.46557 9071 ft 252 kts 29°
2026-05-06 00:13 14.61192 -90.45560 9514 ft 267 kts 28°
2026-05-06 00:13 14.62810 -90.44522 9987 ft 281 kts 28°
2026-05-06 00:13 14.64527 -90.43440 10361 ft 299 kts 28°
2026-05-06 00:13 14.66347 -90.42293 10603 ft 320 kts 28°
2026-05-06 00:14 14.68303 -90.41050 10836 ft 340 kts 28°
2026-05-06 00:14 14.70370 -90.39729 11058 ft 358 kts 29°
2026-05-06 00:14 14.72540 -90.38340 11282 ft 375 kts 29°
2026-05-06 00:14 14.74800 -90.36894 11542 ft 389 kts 29°
2026-05-06 00:15 14.77149 -90.35394 11777 ft 403 kts 29°
2026-05-06 00:15 14.79572 -90.33848 11989 ft 415 kts 29°
2026-05-06 00:15 14.82048 -90.32267 12437 ft 420 kts 29°
2026-05-06 00:15 14.84513 -90.30690 12933 ft 423 kts 29°
2026-05-06 00:16 14.87029 -90.29081 13419 ft 426 kts 29°
2026-05-06 00:16 14.89563 -90.27462 13892 ft 429 kts 29°
2026-05-06 00:16 14.92109 -90.25835 14351 ft 432 kts 29°
2026-05-06 00:16 14.94670 -90.24198 14800 ft 434 kts 29°
2026-05-06 00:17 14.97253 -90.22547 15241 ft 437 kts 29°
2026-05-06 00:17 14.99849 -90.20886 15672 ft 440 kts 29°
2026-05-06 00:17 15.02458 -90.19216 16092 ft 443 kts 29°
2026-05-06 00:17 15.05088 -90.17533 16500 ft 445 kts 29°
2026-05-06 00:18 15.07735 -90.15838 16899 ft 448 kts 29°
2026-05-06 00:18 15.10408 -90.14162 17287 ft 450 kts 27°
2026-05-06 00:18 15.13141 -90.12649 17672 ft 452 kts 25°
2026-05-06 00:18 15.15941 -90.11150 18049 ft 454 kts 24°
2026-05-06 00:19 15.18765 -90.09663 18417 ft 457 kts 24°
2026-05-06 00:19 15.21609 -90.08166 18780 ft 459 kts 24°
2026-05-06 00:19 15.24461 -90.06648 19142 ft 462 kts 25°
2026-05-06 00:19 15.27322 -90.05112 19494 ft 464 kts 25°
2026-05-06 00:20 15.30201 -90.03561 19837 ft 467 kts 25°
2026-05-06 00:20 15.33091 -90.02007 20175 ft 469 kts 25°
2026-05-06 00:20 15.36001 -90.00449 20505 ft 471 kts 25°
2026-05-06 00:20 15.38920 -89.98890 20825 ft 473 kts 25°
2026-05-06 00:21 15.41818 -89.97340 21138 ft 476 kts 25°
2026-05-06 00:21 15.44765 -89.95760 21444 ft 478 kts 25°
2026-05-06 00:21 15.47726 -89.94171 21754 ft 480 kts 25°
2026-05-06 00:21 15.50703 -89.92574 22052 ft 482 kts 25°
2026-05-06 00:22 15.53690 -89.90972 22345 ft 484 kts 25°
2026-05-06 00:22 15.56690 -89.89363 22629 ft 486 kts 25°
2026-05-06 00:22 15.59709 -89.87741 22907 ft 489 kts 25°
2026-05-06 00:22 15.62741 -89.86113 23178 ft 490 kts 25°
2026-05-06 00:23 15.65737 -89.84504 23440 ft 492 kts 25°
2026-05-06 00:23 15.68781 -89.82869 23696 ft 494 kts 25°
2026-05-06 00:23 15.71840 -89.81224 23943 ft 496 kts 25°
2026-05-06 00:23 15.74919 -89.79566 24184 ft 498 kts 25°
2026-05-06 00:24 15.77994 -89.77910 24407 ft 499 kts 25°
2026-05-06 00:24 15.81084 -89.76249 24620 ft 501 kts 25°
2026-05-06 00:24 15.84181 -89.74584 24837 ft 502 kts 25°
2026-05-06 00:24 15.87287 -89.72911 25132 ft 501 kts 25°
2026-05-06 00:25 15.90381 -89.71244 25420 ft 501 kts 25°
2026-05-06 00:25 15.93476 -89.69575 25714 ft 500 kts 25°
2026-05-06 00:25 15.96567 -89.67908 26003 ft 500 kts 25°
2026-05-06 00:25 15.99653 -89.66244 26285 ft 499 kts 25°
2026-05-06 00:26 16.02737 -89.64581 26581 ft 498 kts 25°
2026-05-06 00:26 16.05808 -89.62924 26874 ft 498 kts 25°
2026-05-06 00:26 16.08839 -89.61286 27165 ft 497 kts 25°
2026-05-06 00:26 16.11916 -89.59622 27461 ft 497 kts 25°
2026-05-06 00:27 16.14977 -89.57968 27761 ft 496 kts 25°
2026-05-06 00:27 16.18047 -89.56313 28061 ft 496 kts 25°
2026-05-06 00:27 16.21107 -89.54660 28358 ft 495 kts 25°
2026-05-06 00:27 16.24157 -89.53010 28651 ft 494 kts 25°
2026-05-06 00:28 16.27208 -89.51357 28944 ft 494 kts 25°
2026-05-06 00:28 16.30251 -89.49708 29252 ft 493 kts 25°
2026-05-06 00:28 16.33299 -89.48058 29553 ft 493 kts 25°
2026-05-06 00:28 16.36345 -89.46411 29845 ft 492 kts 25°
2026-05-06 00:29 16.39381 -89.44768 30141 ft 491 kts 25°
2026-05-06 00:29 16.42408 -89.43128 30439 ft 491 kts 25°
2026-05-06 00:29 16.45440 -89.41484 30734 ft 490 kts 25°
2026-05-06 00:29 16.48461 -89.39844 31016 ft 490 kts 25°
2026-05-06 00:30 16.51453 -89.38221 31288 ft 489 kts 25°
2026-05-06 00:30 16.54467 -89.36586 31559 ft 489 kts 25°
2026-05-06 00:30 16.57473 -89.34954 31839 ft 488 kts 25°
2026-05-06 00:30 16.60489 -89.33316 32122 ft 487 kts 25°
2026-05-06 00:31 16.63495 -89.31683 32400 ft 487 kts 25°
2026-05-06 00:31 16.66499 -89.30050 32672 ft 487 kts 25°
2026-05-06 00:31 16.69510 -89.28412 32938 ft 486 kts 25°
2026-05-06 00:31 16.72502 -89.26785 33221 ft 485 kts 25°
2026-05-06 00:32 16.75498 -89.25155 33489 ft 485 kts 25°
2026-05-06 00:32 16.78492 -89.23526 33746 ft 484 kts 25°
2026-05-06 00:32 16.81477 -89.21901 33991 ft 484 kts 25°
2026-05-06 00:32 16.84429 -89.20294 34234 ft 483 kts 25°
2026-05-06 00:33 16.87407 -89.18669 34461 ft 483 kts 25°
2026-05-06 00:33 16.90396 -89.17038 34682 ft 482 kts 25°
2026-05-06 00:33 16.93370 -89.15415 34915 ft 482 kts 25°
2026-05-06 00:34 16.99314 -89.12179 35007 ft 481 kts 25°
2026-05-06 00:34 17.05258 -89.08935 35007 ft 481 kts 25°
2026-05-06 00:35 17.11187 -89.05691 35007 ft 481 kts 25°
2026-05-06 00:35 17.17123 -89.02451 35007 ft 481 kts 25°
2026-05-06 00:36 17.23013 -88.99228 35010 ft 481 kts 25°
2026-05-06 00:36 17.28942 -88.96003 35012 ft 480 kts 24°